TimePST,TemperatureF,Dew PointF,Humidity,Sea Level PressureIn,VisibilityMPH,Wind Direction,Wind SpeedMPH,Gust SpeedMPH,PrecipitationIn,Events,Conditions,WindDirDegrees,DateUTC
12:00 AM,40.3,38.1,92,29.75,-9999.0,South,19.6,-,N/A,,Unknown,170,2013-02-20 08:00:00
1:00 AM,40.8,37.4,88,29.73,-9999.0,SSE,23.0,28.8,N/A,,Unknown,160,2013-02-20 09:00:00
2:00 AM,40.8,36.7,85,29.72,-9999.0,South,24.2,32.2,N/A,,Unknown,170,2013-02-20 10:00:00
3:00 AM,37.0,34.5,91,29.70,-9999.0,South,25.3,32.2,0.03,,Unknown,170,2013-02-20 11:00:00
4:00 AM,38,36,89,29.66,,SSE,29.9,,,,,150,2013-02-20 12:00:00
4:00 AM,37.6,36.0,94,29.66,-9999.0,SSE,29.9,-,0.06,,Unknown,150,2013-02-20 12:00:00
5:00 AM,39.6,37.9,94,29.63,-9999.0,SSE,34.5,41.4,0.03,,Unknown,150,2013-02-20 13:00:00
6:00 AM,40.3,38.5,93,29.64,-9999.0,South,29.9,39.1,0.05,,Unknown,170,2013-02-20 14:00:00
7:00 AM,38.8,37.0,93,29.67,-9999.0,SSW,13.8,20.7,0.02,,Unknown,210,2013-02-20 15:00:00
8:00 AM,37.9,36.3,94,29.70,-9999.0,SSW,12.7,-,N/A,,Unknown,210,2013-02-20 16:00:00
9:00 AM,39.4,37.4,93,29.71,-9999.0,WSW,17.3,-,N/A,,Unknown,240,2013-02-20 17:00:00
10:00 AM,41,38,84,29.73,,WSW,19.6,,,,,240,2013-02-20 18:00:00
10:00 AM,40.6,37.8,89,29.73,-9999.0,WSW,19.6,-,N/A,,Unknown,240,2013-02-20 18:00:00
11:00 AM,42.3,38.1,85,29.74,-9999.0,WSW,16.1,-,N/A,,Unknown,240,2013-02-20 19:00:00
12:00 PM,43.5,38.3,82,29.75,-9999.0,WSW,13.8,-,N/A,,Unknown,240,2013-02-20 20:00:00
1:00 PM,44.1,37.2,77,29.75,-9999.0,SW,13.8,-,N/A,,Unknown,230,2013-02-20 21:00:00
2:00 PM,44.4,37.4,76,29.73,-9999.0,South,8.1,-,N/A,,Unknown,190,2013-02-20 22:00:00
3:00 PM,40.5,34.5,79,29.71,-9999.0,SSW,12.7,19.6,N/A,,Unknown,200,2013-02-20 23:00:00
4:00 PM,40,36,81,29.69,,South,11.5,,,,,180,2013-02-21 00:00:00
4:00 PM,40.5,36.1,85,29.69,-9999.0,South,11.5,-,N/A,,Unknown,180,2013-02-21 00:00:00
6:00 PM,40.8,35.2,80,29.60,-9999.0,South,20.7,-,N/A,,Unknown,170,2013-02-21 02:00:00
7:00 PM,37.6,33.6,86,29.58,-9999.0,South,20.7,28.8,N/A,,Unknown,190,2013-02-21 03:00:00
8:00 PM,38.7,36.1,91,29.52,-9999.0,SSE,28.8,34.5,0.02,,Unknown,160,2013-02-21 04:00:00
9:00 PM,39.4,36.0,88,29.47,-9999.0,SSE,35.7,43.7,N/A,,Unknown,160,2013-02-21 05:00:00
10:00 PM,39,36,87,29.44,,SSE,36.8,,,,,160,2013-02-21 06:00:00
10:00 PM,39.4,36.5,89,29.44,-9999.0,SSE,36.8,44.9,N/A,,Unknown,160,2013-02-21 06:00:00
11:00 PM,39.7,37.0,90,29.41,-9999.0,SSE,36.8,44.9,N/A,,Unknown,160,2013-02-21 07:00:00